Regional Weather Roundup
Issued by NWS Nashville, TN

Home | Current Version | Previous Version | Text Only | Print | Product List | Glossary On
Versions: 1 2 3 4 5 6 7 8 9 10 11 12 13 14 15 16 17 18 19 20 21 22 23 24 25 26 27 28
000
ASUS44 KOHX 041210
RWROHX
MIDDLE TENNESSEE HOURLY WEATHER ROUNDUP
NATIONAL WEATHER SERVICE NASHVILLE TN
600 AM CST SUN DEC 04 2016

NOTE: "FAIR" INDICATES FEW OR NO CLOUDS BELOW 12,000 FEET WITH
NO SIGNIFICANT WEATHER AND/OR OBSTRUCTIONS TO VISIBILITY.

* THESE REPORTS ARE NOT UNDER NWS QUALITY CONTROL AND MAY NOT
  REPORT WEATHER SUCH AS PRECIPITATION AND FOG.


TNZ005>011-023>034-057-059-062>066-078-080-041300
...NORTHERN MIDDLE TENNESSEE...

CITY           SKY/WX    TMP DP  RH WIND       PRES   REMARKS
CLARKSVILLE    CLOUDY    40  38  93 E8        30.09F FOG     WCI  34
CROSSVILLE     LGT RAIN  38  36  92 SE8       30.10F WCI  32
LEBANON        CLOUDY    40  39  96 CALM      30.10R
NASHVILLE      CLOUDY    42  40  92 N6        30.13R
PORTLAND       CLOUDY    41  41 100 CALM      30.13R FOG
SMYRNA         LGT RAIN  42  41  96 N5        30.13R
SPRINGFIELD    CLOUDY    39  39 100 CALM      30.11S FOG
WEST NASHVILLE CLOUDY    39  37  93 CALM      30.13R
$$
TNZ056-058-060-061-075>077-079-093>097-041300
...SOUTHERN MIDDLE TENNESSEE...

CITY           SKY/WX    TMP DP  RH WIND       PRES   REMARKS
COLUMBIA       CLOUDY   N/A N/A N/A N5        30.07R
FAYETTEVILLE   CLOUDY    46  45  93 SE14G21   30.04S FOG
MCMINNVILLE    MOCLDY    45  45 100 E5        30.09R
SHELBYVILLE    CLOUDY    45  45 100 E3        30.08F
TULLAHOMA      MOCLDY    41  41 100 VRB7      30.05F
WINCHESTER     CLOUDY    43  41  93 SE15      30.05F
$$


...KEY TO REMARKS...
VSB - VISIBILITY IN MILES
WCI - WIND CHILL INDEX
HX  - HEAT INDEX





USA.gov is the U.S. government's official web portal to all federal, state and local government web resources and services.